Overview Statistics Trail Chart Weather Telemetry Raw packets
 

This is the latest recevied weather packets stored in our database for station/object KD4EED. If no packets are shown the sender has not sent any weather packets the latest 10 day(s).

<< 46 47 48 49 50 51 52 >>
Time Temp. Humidity Pressure Rain* Wind** Luminosity Snow
1788365383 19.44° C 79% 1013.9 hPa - - 58 W/m² -
1788365079 19.44° C 81% 1014 hPa - - 56 W/m² -
1788364777 18.89° C 82% 1014 hPa - - 42 W/m² -
1788364472 18.89° C 84% 1013.9 hPa - - 37 W/m² -
1788364166 18.33° C 85% 1014 hPa - - 37 W/m² -
1788363862 18.33° C 86% 1014 hPa - - 32 W/m² -
1788363561 17.78° C 87% 1014 hPa - - 30 W/m² -
1788363260 17.78° C 89% 1013.8 hPa - - 30 W/m² -
1788362955 17.78° C 89% 1013.9 hPa - - 29 W/m² -
1788362651 17.22° C 90% 1013.8 hPa - - 28 W/m² -
1788362348 17.22° C 92% 1013.9 hPa - - 27 W/m² -
1788362043 17.22° C 93% 1013.7 hPa - - 25 W/m² -
1788361742 16.67° C 93% 1013.8 hPa - - 24 W/m² -
1788361439 16.67° C 93% 1013.9 hPa - - 23 W/m² -
1788361138 16.67° C 94% 1013.8 hPa - - 22 W/m² -
1788360833 16.67° C 94% 1013.9 hPa - - 21 W/m² -
1788360528 16.11° C 94% 1013.8 hPa - - 19 W/m² -
1788360225 16.11° C 95% 1013.9 hPa - - 18 W/m² -
1788359924 16.11° C 95% 1013.8 hPa - - 17 W/m² -
1788359619 16.11° C 95% 1013.8 hPa - - 16 W/m² -
1788359315 15.56° C 95% 1013.7 hPa - - 15 W/m² -
1788359011 15.56° C 95% 1013.9 hPa - - 15 W/m² -
1788358706 15.56° C 95% 1013.8 hPa - - 14 W/m² -
1788358402 15° C 94% 1013.5 hPa - - 13 W/m² -
1788358101 15° C 94% 1013.4 hPa - - 12 W/m² -

* Rain since midnight (hover to see other rain measurements)
** Current wind speed in m/s (hover to see current wind gust speed)